Ketchikan, AK

11:38 AM AKDT on July 22, 2017 (GMT -0800)
Ketchikan International

Weather History for PAKT - May, 2014

Change the Weather History Date:

Friday, May 2, 2014

  Actual Average Record
Temperature  
Mean Temperature 55 °F -  
Max Temperature 66 °F 52 °F 66 °F (2014)
Min Temperature 44 °F 40 °F 28 °F (1997)
Degree Days  
Heating Degree Days 10    
Growing Degree Days 5 (Base 50)    
Moisture  
Dew Point 42 °F    
Average Humidity 69    
Maximum Humidity 96    
Minimum Humidity 30    
Precipitation  
Precipitation 0.01 in - - ()
Sea Level Pressure  
Sea Level Pressure 29.95 in    
Wind  
Wind Speed 2 mph (SE)    
Max Wind Speed 12 mph    
Max Gust Speed -    
Visibility 10 miles    
Events Rain    
Averages and records for this station are not official NWS values.
T = Trace of Precipitation, MM = Missing Value Source: NWS Daily Summary

Daily Weather History Graph

Daily Weather History Graph

Search for Another Location

Airport or City:

Trip Planner

Search our weather history database for the weather conditions in past years. The results will help you decide how hot, cold, wet, or windy it might be!

Date:

Astronomy

May. 02, 2014 Rise Set
Actual Time 5:02 AM AKDT 8:26 PM AKDT
Civil Twilight 4:19 AM AKDT 9:10 PM AKDT
Nautical Twilight 3:19 AM AKDT 10:10 PM AKDT
Astronomical Twilight 1:46 AM AKDT 11:48 PM AKDT
Moon 7:34 AM AKDT (5/2) No Moon Set
Length of Visible Light 16h 51m
Length of Day
15h 23m
Waxing Crescent, 13% of the Moon is Illuminated
May 2
Waxing Crescent
May 6
First Quarter
May 14
Full
May 21
Last Quarter
May 28
New

Hourly Weather History & Observations

Time (AKDT) Temp. Dew Point Humidity Pressure Visibility Wind Dir Wind Speed Gust Speed Precip Events Conditions
12:53 AM 48.9 °F 42.1 °F 77% 29.94 in 10.0 mi Calm Calm - N/A   Clear
1:53 AM 50.0 °F 39.9 °F 68% 29.94 in 10.0 mi Calm Calm - N/A   Clear
2:53 AM 48.9 °F 39.0 °F 69% 29.92 in 10.0 mi Calm Calm - N/A   Clear
3:53 AM 48.0 °F 39.0 °F 71% 29.92 in 10.0 mi Calm Calm - N/A   Clear
4:53 AM 48.9 °F 39.0 °F 69% 29.92 in 10.0 mi Variable 3.5 mph - N/A   Clear
5:53 AM 50.0 °F 41.0 °F 71% 29.91 in 10.0 mi Calm Calm - N/A   Clear
6:10 AM 50.0 °F 41.0 °F 71% 29.90 in 10.0 mi Calm Calm - N/A   Clear
6:53 AM 55.0 °F 42.1 °F 62% 29.91 in 10.0 mi Calm Calm - N/A   Clear
7:53 AM 57.0 °F 42.1 °F 57% 29.92 in 10.0 mi Calm Calm - N/A   Clear
8:53 AM 61.0 °F 37.9 °F 42% 29.92 in 10.0 mi Calm Calm - N/A   Clear
9:53 AM 64.0 °F 39.0 °F 40% 29.94 in 10.0 mi East 4.6 mph - N/A   Mostly Cloudy
10:53 AM 66.0 °F 37.9 °F 36% 29.95 in 10.0 mi Calm Calm - N/A   Overcast
11:53 AM 66.0 °F 34.0 °F 30% 29.96 in 10.0 mi Calm Calm - N/A   Partly Cloudy
12:53 PM 66.0 °F 37.0 °F 34% 29.97 in 10.0 mi SSE 4.6 mph - 0.00 in Rain Light Rain
1:53 PM 55.9 °F 45.0 °F 67% 29.99 in 10.0 mi SE 11.5 mph - 0.00 in   Mostly Cloudy
2:53 PM 52.0 °F 46.0 °F 80% 29.99 in 10.0 mi SE 11.5 mph - N/A   Overcast
3:53 PM 52.0 °F 46.0 °F 80% 29.98 in 10.0 mi SSE 8.1 mph - N/A   Overcast
4:53 PM 53.1 °F 46.9 °F 80% 29.98 in 10.0 mi SE 8.1 mph - N/A   Overcast
5:53 PM 53.1 °F 48.9 °F 86% 29.97 in 10.0 mi SE 8.1 mph - 0.01 in Rain Light Rain
6:53 PM 52.0 °F 48.0 °F 86% 29.95 in 10.0 mi South 3.5 mph - 0.00 in   Mostly Cloudy
7:53 PM 51.1 °F 48.0 °F 89% 29.95 in 10.0 mi WNW 5.8 mph - N/A   Scattered Clouds
8:53 PM 48.9 °F 46.9 °F 93% 29.95 in 10.0 mi Calm Calm - N/A   Clear
9:53 PM 46.0 °F 44.1 °F 93% 29.95 in 10.0 mi Calm Calm - N/A   Clear
10:53 PM 44.1 °F 43.0 °F 96% 29.96 in 10.0 mi Calm Calm - N/A   Clear
11:53 PM 48.0 °F 39.9 °F 74% 29.95 in 10.0 mi Variable 3.5 mph - N/A   Mostly Cloudy